Вернуться в каталог

STARLINK-37154

АктивенСвязьSSO
NORAD 68316·PAYLOAD·🇺🇸 United States

Запущен Mar 20, 2026 с Vandenberg Space Force Base

Loading…

Ближайшие Пролёты (ближайшие 24 часа)

TLE

СвежийSource: CelesTrak SupGP

Эпоха: Sep 15, 2026, 04:07 UTC

1 68316C 26057Y   26258.17201389 -.00010152  00000+0 -31509-3 0  2587
2 68316  97.2850  23.5756 0001138  93.0028 224.2289 15.33451036    11

Отслеживайте STARLINK-37154 в реальном времени с AllMySat

Download on the App Store